[[{"header":{"parameterUnit":"m.s-1","parameterCategory":1,"la1":30.2991,"la2":30.254,"lo1":-89.0895,"lo2":-89.0444,"dy":0.0017,"dx":0.0017,"nx":28,"ny":28,"refTime":"2025-06-09T09:00:00:Z","depth":0,"parameterNumber":2,"parameterNumberName":"U-component_of_WINDS"},"data":[0,0,0,0,0,0,0,0,0,0,0,0,0,0,0,0,0,0,0,0,0,0,0,0,0,0,0,0,0,0,0,0,0,0,0,0,0,0,0,0,0,0,0,0,0,0,0,0,0,0,0,0,0,0,0,0,0,0,-0.9717,-0.9716,0,-0.964,-0.9639,-0.9638,-0.9609,-0.961,-0.961,-0.961,-0.9526,-0.9523,-0.9521,0,0,0,0,0,0,0,0,0,0,0,0,0,-0.9835,-0.9834,-0.9717,-0.9716,-0.9715,-0.964,-0.9639,-0.9638,-0.9609,-0.961,-0.961,-0.961,-0.9527,-0.9524,-0.9521,0,0,0,0,0,0,0,0,0,0,0,0,0,-0.9774,-0.9833,-0.9718,-0.9692,-0.9689,-0.964,-0.9639,-0.9637,-0.9609,-0.961,-0.961,-0.9611,-0.9528,-0.9524,-0.952,-0.9489,0,0,-0.9509,-0.9507,0,0,0,0,0,0,0,0,-0.9777,-0.9769,-0.9697,-0.9694,-0.9691,-0.9635,-0.9649,-0.9587,-0.9609,-0.964,-0.961,-0.9611,-0.9561,-0.9555,-0.9539,-0.9485,-0.9481,-0.9508,-0.9506,-0.9504,-0.9503,0,0,0,0,0,0,0,-0.9781,-0.9772,-0.9686,-0.9696,-0.9692,-0.9683,-0.9675,-0.9637,-0.9599,-0.9637,-0.9635,-0.9626,-0.956,-0.9543,-0.9537,-0.948,-0.9508,-0.9505,-0.9503,-0.9501,-0.9394,-0.9393,0,0,0,0,0,0,-0.9791,-0.9776,-0.9689,-0.9684,-0.9736,-0.9681,-0.9671,-0.9652,-0.9599,-0.9592,-0.9626,-0.9625,-0.9549,-0.9541,-0.9534,-0.9492,-0.9504,-0.9501,-0.9499,-0.9394,-0.9393,-0.9393,0,0,0,0,0,0,-0.9793,-0.9783,-0.9692,-0.973,-0.9717,-0.9678,-0.9657,-0.965,-0.9634,-0.9591,-0.9583,-0.9616,-0.9549,-0.9539,-0.95,-0.9489,-0.9499,-0.9496,-0.9395,-0.9394,-0.9393,-0.941,0,0,0,0,0,0,-0.9797,-0.9784,-0.9773,-0.973,-0.9715,-0.9661,-0.9656,-0.9649,-0.9628,-0.9626,-0.958,-0.9573,-0.9549,-0.9506,-0.9496,-0.9484,-0.9493,-0.9396,-0.9394,-0.9393,-0.941,-0.941,-0.9409,0,0,0,0,0,-0.9801,-0.978,-0.9773,-0.9763,-0.9701,-0.9661,-0.9653,-0.9627,-0.9627,-0.9615,-0.9587,-0.9574,-0.9492,-0.9502,-0.9491,-0.9478,-0.9396,-0.9395,-0.9393,-0.941,-0.941,-0.9409,0,0,0,0,0,0,-0.9822,-0.9774,-0.9765,-0.973,-0.97,-0.9656,-0.964,-0.9627,-0.9595,-0.9594,-0.9562,-0.9552,-0.9515,-0.9492,-0.9504,-0.9443,-0.9443,-0.9439,-0.946,-0.9459,-0.9458,-0.9464,-0.949,0,0,0,0,0,-0.9823,-0.9796,-0.9755,-0.9728,-0.9713,-0.9679,-0.9661,-0.9644,-0.961,-0.9597,-0.9566,-0.9533,-0.9499,-0.9478,-0.9445,-0.9407,-0.9395,-0.9392,-0.9391,-0.9391,-0.9388,-0.9364,-0.9362,-0.9388,-0.9388,-0.9388,0,0,-0.9824,-0.9795,-0.9779,-0.9731,-0.9706,-0.9677,-0.9669,-0.9638,-0.9616,-0.9592,-0.9553,-0.9529,-0.949,-0.9451,-0.9432,-0.9431,-0.9378,-0.939,-0.939,-0.9387,-0.9363,-0.936,-0.9358,-0.9387,-0.9387,-0.9388,0,0,-0.9811,-0.9787,-0.9761,-0.9736,-0.9698,-0.9675,-0.9669,-0.9627,-0.9611,-0.9572,-0.9553,-0.9524,-0.9468,-0.944,-0.9418,-0.9394,-0.9379,-0.9384,-0.9381,-0.9358,-0.9356,-0.9354,-0.9344,-0.934,-0.9381,-0.9381,-0.9381,0,-0.9817,-0.9774,-0.9749,-0.972,-0.9698,-0.9676,-0.9649,-0.9625,-0.9577,-0.9562,-0.9562,-0.949,-0.9461,-0.9415,-0.9409,-0.9393,-0.9383,-0.9388,-0.9359,-0.9356,-0.9354,-0.9344,-0.934,-0.9381,-0.9381,-0.9381,-0.9381,0,-0.9782,-0.9752,-0.9735,-0.9692,-0.9668,-0.964,-0.9609,-0.9588,-0.9572,-0.9549,-0.9509,-0.9474,-0.9433,-0.9421,-0.9405,-0.9371,-0.9371,-0.9366,-0.9364,-0.9353,-0.9342,-0.9338,-0.9382,-0.9382,-0.9382,-0.9382,0,0,-0.978,-0.9722,-0.9716,-0.9696,-0.9652,-0.9627,-0.9597,-0.9558,-0.954,-0.9508,-0.948,-0.9433,-0.9426,-0.9402,-0.9383,-0.9363,-0.9343,-0.9359,-0.9357,-0.9356,-0.9302,-0.9306,-0.9302,-0.9334,-0.9334,-0.9333,-0.9305,0,-0.976,-0.9707,-0.9683,-0.9639,-0.9611,-0.9589,-0.9562,-0.9531,-0.9509,-0.9479,-0.9453,-0.942,-0.9415,-0.94,-0.9379,-0.935,-0.9332,-0.9352,-0.9306,-0.9305,-0.9316,-0.9297,-0.9301,-0.9276,-0.9301,-0.93,-0.9299,0,-0.9729,-0.9698,-0.9653,-0.9611,-0.9598,-0.9575,-0.9537,-0.951,-0.9473,-0.9458,-0.943,-0.9412,-0.9377,-0.9379,-0.9329,-0.9343,-0.9323,-0.9306,-0.9304,-0.9298,-0.9301,-0.9288,-0.9268,-0.9264,-0.9293,-0.9294,-0.9294,0,-0.9731,-0.9677,-0.9643,-0.9626,-0.9577,-0.9561,-0.9539,-0.9504,-0.9481,-0.9447,-0.9432,-0.9394,-0.9373,-0.9343,-0.9313,-0.9318,-0.9265,-0.9266,-0.925,-0.925,-0.9239,-0.924,-0.9213,-0.9228,-0.9228,-0.9228,-0.9228,0,-0.971,-0.9683,-0.9643,-0.9621,-0.9589,-0.9561,-0.9529,-0.9506,-0.9474,-0.9446,-0.9425,-0.9398,-0.9362,-0.9331,-0.9307,-0.9268,-0.9259,-0.9244,-0.9238,-0.9245,-0.9247,-0.9231,-0.9231,-0.9227,-0.9227,-0.9228,-0.9228,0,-0.9706,-0.9679,-0.9639,-0.9596,-0.9585,-0.9563,-0.9525,-0.9502,-0.9479,-0.9443,-0.9433,-0.9395,-0.9357,-0.9325,-0.9274,-0.9259,-0.9217,-0.9211,-0.923,-0.9227,-0.9212,-0.9214,-0.9173,-0.9166,-0.9187,-0.9187,-0.9187,0,-0.9695,-0.9673,-0.9628,-0.9609,-0.9588,-0.9557,-0.9534,-0.9505,-0.9482,-0.9438,-0.942,-0.9381,-0.9348,-0.9287,-0.9253,-0.9214,-0.9205,-0.9194,-0.9199,-0.9207,-0.9203,-0.9204,-0.9201,-0.9193,-0.9193,-0.9193,-0.9193,0,-0.9676,-0.9664,-0.9633,-0.9597,-0.9571,-0.9541,-0.951,-0.9495,-0.946,-0.9434,-0.9396,-0.937,-0.9319,-0.9279,-0.9236,-0.9211,-0.9195,-0.9192,-0.9186,-0.9192,-0.9204,-0.9196,-0.9228,-0.9193,-0.9193,-0.9193,-0.9193,-0.9193,-0.9667,-0.9646,-0.9611,-0.9577,-0.9551,-0.9523,-0.9499,-0.9473,-0.944,-0.9397,-0.9382,-0.9342,-0.9303,-0.9244,-0.9219,-0.9186,-0.9184,-0.9176,-0.9173,-0.9171,-0.9171,-0.921,-0.9178,-0.9178,-0.9178,-0.9178,-0.9178,0,-0.9646,-0.9623,-0.9592,-0.955,-0.9523,-0.9512,-0.9477,-0.9454,-0.942,-0.9387,-0.9355,-0.9309,-0.927,-0.9234,-0.9192,-0.9172,-0.9164,-0.9162,-0.9163,-0.9157,-0.9176,-0.9185,-0.917,-0.917,-0.917,-0.917,-0.917,-0.917,-0.9632,-0.9596,-0.9579,-0.9529,-0.9505,-0.9467,-0.9448,-0.942,-0.9394,-0.9345,-0.9313,-0.929,-0.9254,-0.921,-0.9173,-0.9163,-0.9148,-0.9148,-0.9135,-0.9154,-0.9156,-0.9157,-0.9165,-0.9145,-0.9145,-0.9118,-0.9118,-0.9118]},{"header":{"parameterUnit":"m.s-1","parameterCategory":1,"la1":30.2991,"la2":30.254,"lo1":-89.0895,"lo2":-89.0444,"dy":0.0017,"dx":0.0017,"nx":28,"ny":28,"refTime":"2025-06-09T09:00:00:Z","depth":0,"parameterNumber":3,"parameterNumberName":"V-component_of_WINDS"},"data":[0,0,0,0,0,0,0,0,0,0,0,0,0,0,0,0,0,0,0,0,0,0,0,0,0,0,0,0,0,0,0,0,0,0,0,0,0,0,0,0,0,0,0,0,0,0,0,0,0,0,0,0,0,0,0,0,0,0,0.6244,0.6243,0,0.6145,0.6144,0.6143,0.6096,0.6097,0.6097,0.6097,0.5991,0.5988,0.5985,0,0,0,0,0,0,0,0,0,0,0,0,0,0.6385,0.6383,0.6244,0.6242,0.6241,0.6145,0.6144,0.6143,0.6096,0.6097,0.6097,0.6097,0.5992,0.5988,0.5985,0,0,0,0,0,0,0,0,0,0,0,0,0,0.6309,0.6382,0.6244,0.6207,0.6202,0.6146,0.6144,0.6142,0.6096,0.6097,0.6097,0.6097,0.5993,0.5989,0.5985,0.5956,0,0,0.5971,0.5969,0,0,0,0,0,0,0,0,0.6313,0.6304,0.6213,0.6209,0.6204,0.6133,0.6155,0.608,0.6096,0.6137,0.6097,0.6097,0.6038,0.603,0.6011,0.5951,0.5946,0.5971,0.5968,0.5966,0.5965,0,0,0,0,0,0,0,0.6319,0.6308,0.6205,0.6212,0.6207,0.6193,0.6182,0.6141,0.6088,0.6133,0.6129,0.6119,0.6035,0.6015,0.6008,0.5945,0.5971,0.5967,0.5965,0.5963,0.5853,0.5853,0,0,0,0,0,0,0.6331,0.6312,0.6208,0.6202,0.626,0.619,0.6178,0.6156,0.6088,0.6078,0.6119,0.6117,0.6023,0.6013,0.6004,0.5965,0.5967,0.5962,0.596,0.5854,0.5853,0.5853,0,0,0,0,0,0,0.6334,0.6322,0.6212,0.6256,0.6241,0.6188,0.6163,0.6154,0.6134,0.6077,0.6067,0.6108,0.6022,0.601,0.5968,0.596,0.5961,0.5957,0.5854,0.5853,0.5853,0.5886,0,0,0,0,0,0,0.6338,0.6323,0.6314,0.6256,0.6239,0.6179,0.6163,0.6152,0.6127,0.6124,0.6065,0.6055,0.6022,0.5975,0.5964,0.5954,0.5953,0.5854,0.5854,0.5853,0.5886,0.5887,0.5888,0,0,0,0,0,0.6344,0.6326,0.6313,0.6301,0.6226,0.6179,0.6169,0.6132,0.6127,0.6115,0.6079,0.6057,0.5963,0.5971,0.5958,0.5947,0.5855,0.5854,0.5853,0.5885,0.5887,0.5888,0,0,0,0,0,0,0.6383,0.6318,0.6303,0.6267,0.6229,0.6171,0.6156,0.6135,0.6096,0.6095,0.6049,0.6036,0.5997,0.5968,0.5977,0.5915,0.5907,0.5903,0.5935,0.5936,0.5938,0.5945,0.595,0,0,0,0,0,0.6388,0.6357,0.6301,0.6275,0.6256,0.621,0.6188,0.6163,0.612,0.6104,0.6064,0.6022,0.5983,0.5958,0.5919,0.5881,0.5866,0.5867,0.5869,0.587,0.5867,0.5842,0.5842,0.585,0.585,0.5851,0,0,0.6397,0.6357,0.6341,0.6282,0.6249,0.6216,0.6196,0.6162,0.6137,0.6098,0.6055,0.6025,0.5975,0.5934,0.5914,0.5909,0.5861,0.5869,0.587,0.5867,0.5842,0.5841,0.584,0.585,0.585,0.585,0,0,0.6396,0.6364,0.6338,0.6306,0.6257,0.6225,0.6219,0.6164,0.6142,0.6099,0.6069,0.6037,0.5971,0.5936,0.591,0.5894,0.5872,0.5882,0.5889,0.5865,0.5865,0.5864,0.5856,0.5854,0.588,0.588,0.588,0,0.6413,0.6364,0.6326,0.6294,0.6268,0.6232,0.6204,0.6174,0.6114,0.6096,0.6091,0.6006,0.597,0.592,0.5916,0.5897,0.5886,0.5889,0.5868,0.5867,0.5865,0.5858,0.5855,0.5882,0.5882,0.5881,0.5881,0,0.6386,0.6352,0.6336,0.6281,0.6253,0.6222,0.6178,0.6154,0.6131,0.6099,0.6054,0.601,0.5961,0.5947,0.5924,0.5892,0.589,0.5877,0.5868,0.5867,0.5858,0.5855,0.5884,0.5883,0.5883,0.5883,0,0,0.6408,0.6331,0.6326,0.63,0.6242,0.6214,0.6181,0.6134,0.6113,0.6073,0.6042,0.5987,0.5974,0.5944,0.5916,0.5896,0.5884,0.5885,0.5883,0.5885,0.5844,0.5853,0.5851,0.5869,0.5868,0.5868,0.5848,0,0.6398,0.6339,0.6304,0.6258,0.6225,0.619,0.6161,0.6121,0.609,0.6056,0.6021,0.5982,0.5969,0.595,0.5929,0.589,0.5875,0.5891,0.5838,0.5837,0.5851,0.5847,0.5857,0.584,0.5844,0.5844,0.5843,0,0.6379,0.6341,0.6292,0.6237,0.6222,0.6196,0.6149,0.6118,0.6071,0.605,0.6016,0.5988,0.5949,0.5944,0.5888,0.59,0.5875,0.5853,0.5851,0.5844,0.5839,0.5838,0.5834,0.5831,0.5838,0.5839,0.5839,0,0.6398,0.6334,0.6296,0.6275,0.621,0.6192,0.6164,0.6118,0.6091,0.6049,0.6031,0.5984,0.5959,0.5922,0.5881,0.5882,0.5829,0.5821,0.5808,0.5809,0.5798,0.5799,0.5788,0.5785,0.5785,0.5785,0.5785,0,0.639,0.6362,0.6303,0.628,0.6246,0.6204,0.6171,0.614,0.6098,0.6066,0.6033,0.6003,0.5952,0.5915,0.5883,0.584,0.5829,0.5809,0.58,0.5811,0.5813,0.5794,0.5793,0.5784,0.5784,0.5784,0.5784,0,0.6406,0.6366,0.6322,0.6264,0.6249,0.6226,0.6175,0.615,0.6117,0.6077,0.6065,0.6013,0.5967,0.5923,0.5862,0.584,0.5797,0.5787,0.5814,0.5809,0.5798,0.5799,0.5774,0.5767,0.5769,0.577,0.577,0,0.6403,0.638,0.632,0.6297,0.627,0.6233,0.6205,0.6163,0.6135,0.6079,0.606,0.6013,0.5972,0.5901,0.5856,0.5809,0.5796,0.579,0.5789,0.5799,0.5794,0.5795,0.5792,0.5791,0.5791,0.5792,0.5792,0,0.6402,0.6383,0.6346,0.6301,0.6269,0.6232,0.6192,0.6175,0.6124,0.6094,0.6048,0.6017,0.5955,0.5907,0.5854,0.5823,0.5798,0.5793,0.5787,0.5797,0.5813,0.5803,0.5815,0.5793,0.5793,0.5793,0.5793,0.5793,0.6407,0.6384,0.6338,0.6296,0.6263,0.6227,0.62,0.6163,0.6125,0.6072,0.6048,0.6001,0.5952,0.5879,0.5848,0.5809,0.5803,0.5795,0.5792,0.5791,0.5792,0.582,0.5799,0.5799,0.5799,0.5799,0.5799,0,0.6402,0.6371,0.6333,0.628,0.6247,0.6228,0.6183,0.6156,0.6116,0.6073,0.6035,0.598,0.5934,0.5885,0.5835,0.5813,0.58,0.5801,0.5801,0.5794,0.5802,0.5811,0.5812,0.5812,0.5812,0.5812,0.5812,0.5812,0.6396,0.6356,0.6332,0.6273,0.6241,0.6196,0.6172,0.6137,0.6103,0.6045,0.6006,0.5975,0.5929,0.5875,0.583,0.5817,0.5799,0.5803,0.5786,0.5794,0.5793,0.5793,0.5801,0.58,0.58,0.5781,0.5781,0.5781]}]]